Hourly Data Report for October 17, 2017

All times are specified in Local Standard Time (LST). Add 1 hour to adjust for Daylight Saving Time where and when it is observed.

MONTREAL MIRABEL INTL A
QUEBEC

45°40'50.000" N
74°02'19.000" W
82.30 m
7034900
YMX

Related Data

No related data is available for this station

Download Data

Hourly Data (October 2017)
Hourly Data Report for October 17, 2017
Temp Definition
°C
Dew Point Temp Definition
°C
Rel Hum Definition
%
Wind Dir Definition
10's deg

Wind Spd Definition
km/h
Visibility Definition
km
Stn Press Definition
kPa
Hmdx Definition


Wind Chill Definition


Weather Definition


TIME
00:00 Legend Double Dagger -1.8 -2.5 95 23 4 40.2 101.32   -3 LegendNANA
01:00 Legend Double Dagger -2.1 -2.7 96 24 3 40.2 101.34   -3 Mainly Clear
02:00 Legend Double Dagger -1.6 -2.1 96 24 4 40.2 101.36   -3 LegendNANA
03:00 Legend Double Dagger -1.4 -1.9 96 24 4 40.2 101.36   -3 LegendNANA
04:00 Legend Double Dagger -1.2 -1.8 96 21 4 40.2 101.39   -3 Clear
05:00 Legend Double Dagger -1.4 -1.9 97 36 1 40.2 101.39   -2 LegendNANA
06:00 Legend Double Dagger -1.8 -2.2 97 28 4 32.2 101.39   -3 LegendNANA
07:00 Legend Double Dagger -0.4 -1.2 94 24 4 40.2 101.40   -2 Mostly Cloudy
08:00 Legend Double Dagger 0.9 -0.2 92 25 5 72.4 101.40     LegendNANA
09:00 Legend Double Dagger 2.0 0.6 90 28 4 72.4 101.37     LegendNANA
10:00 Legend Double Dagger 3.4 1.3 86 20 5 72.4 101.27     Mostly Cloudy
11:00 Legend Double Dagger 7.8 2.4 68 22 14 72.4 101.19     LegendNANA
12:00 Legend Double Dagger 10.1 3.4 63 23 13 72.4 101.03     LegendNANA
13:00 Legend Double Dagger 10.6 3.4 61 23 16 72.4 100.91     Mostly Cloudy
14:00 Legend Double Dagger 11.9 3.7 57 23 26 72.4 100.81     LegendNANA
15:00 Legend Double Dagger 12.0 3.2 55 22 21 72.4 100.72     LegendNANA
16:00 Legend Double Dagger 12.6 3.6 54 21 21 72.4 100.61     Mostly Cloudy
17:00 Legend Double Dagger 12.1 4.4 59 21 16 72.4 100.61     LegendNANA
18:00 Legend Double Dagger 12.0 5.2 63 21 14 40.2 100.61     LegendNANA
19:00 Legend Double Dagger 12.7 6.6 66 22 16 40.2 100.58     Mostly Cloudy
20:00 Legend Double Dagger 12.5 6.9 68 22 19 40.2 100.60     LegendNANA
21:00 Legend Double Dagger 12.3 6.9 70 22 16 40.2 100.62     LegendNANA
22:00 Legend Double Dagger 11.1 7.1 76 23 10 40.2 100.63     Mostly Cloudy
23:00 Legend Double Dagger 11.2 7.4 77 24 16 40.2 100.60     LegendNANA

Notes on Data Quality.

Legend

  • E = Estimated
  • M = Missing
  • NA = Not Available
  • ‡ = Partner data that is not subject to review by the National Climate Archives
Date modified: